Ardabil, Iran

1:05 PM +0430 on September 20, 2019 (GMT +0430)
Ardabil

Weather History for OITL - August, 2019

Change the Weather History Date:

Sunday, August 25, 2019

  Actual Average Record
Temperature  
Mean Temperature 66 °F -  
Max Temperature 82 °F - - ()
Min Temperature 50 °F - - ()
Cooling Degree Days 1    
Growing Degree Days 16 (Base 50)    
Moisture  
Dew Point 41 °F    
Average Humidity 37    
Maximum Humidity 62    
Minimum Humidity 24    
Precipitation  
Precipitation 0.00 in - - ()
Sea Level Pressure  
Sea Level Pressure 30.08 in    
Wind  
Wind Speed 11 mph ()    
Max Wind Speed 26 mph    
Max Gust Speed -    
Visibility 6.2 miles    
Events      
T = Trace of Precipitation, MM = Missing Value Source: Averaged Metar Reports

Daily Weather History Graph

Daily Weather History Graph

Search for Another Location

Airport or City:

Astronomy

Aug. 25, 2019 Rise Set
Actual Time 6:39 AM +0430 7:57 PM +0430
Civil Twilight 6:11 AM +0430 8:24 PM +0430
Nautical Twilight 5:38 AM +0430 8:57 PM +0430
Astronomical Twilight 5:04 AM +0430 9:31 PM +0430
Moon 12:59 AM +0430 (8/25) 3:50 PM +0430 (8/25)
Length of Visible Light 14h 13m
Length of Day
13h 18m
Waning Crescent, 33% of the Moon is Illuminated
Aug 25
Waning Crescent
Aug 30
New
Sep 6
First Quarter
Sep 14
Full
Sep 22
Last Quarter

Hourly Weather History & Observations

Time (+0430) Temp. Dew Point Humidity Pressure Visibility Wind Dir Wind Speed Gust Speed Precip Events Conditions
12:21 AM 68.0 °F 39.2 °F 35% 30.09 in - East 13.8 mph - N/A   Clear
1:21 AM 60.8 °F 41.0 °F 48% 30.09 in - SSE 9.2 mph - N/A   Clear
2:22 AM 55.4 °F 39.2 °F 54% 30.09 in - ESE 4.6 mph - N/A   Clear
3:20 AM 53.6 °F 37.4 °F 54% 30.09 in - SSW 4.6 mph - N/A   Clear
4:22 AM 51.8 °F 35.6 °F 54% 30.09 in - ESE 9.2 mph - N/A   Clear
5:21 AM 51.8 °F 37.4 °F 58% 30.09 in - East 4.6 mph - N/A   Clear
6:21 AM 50.0 °F 37.4 °F 62% 30.09 in - East 6.9 mph - N/A   Clear
6:30 AM 50.0 °F 37.4 °F 62% 30.09 in - East 6.9 mph - N/A   Clear
7:22 AM 51.8 °F 35.6 °F 54% 30.09 in - East 4.6 mph - N/A   Clear
7:30 AM 51.8 °F 35.6 °F 54% 30.09 in - East 4.6 mph - N/A   Clear
8:22 AM 59.0 °F 37.4 °F 45% 30.09 in - SE 4.6 mph - N/A   Clear
9:21 AM 68.0 °F 41.0 °F 37% 30.12 in - Variable 2.3 mph - N/A   Clear
10:00 AM 71.6 °F 42.8 °F 35% 30.12 in - West 6.9 mph - N/A   Clear
10:24 AM 75.2 °F 42.8 °F 31% 30.12 in 6.2 mi South 6.9 mph - N/A   Partly Cloudy
10:30 AM 75.2 °F 42.8 °F 31% 30.12 in 6.2 mi South 6.9 mph - N/A   Partly Cloudy
11:00 AM 78.8 °F 42.8 °F 28% 30.09 in 6.2 mi NE 6.9 mph - N/A   Partly Cloudy
11:30 AM 80.6 °F 41.0 °F 24% 30.09 in 6.2 mi ENE 13.8 mph - N/A   Partly Cloudy
12:00 PM 80.6 °F 41.0 °F 24% 30.09 in 6.2 mi ENE 16.1 mph - N/A   Partly Cloudy
12:20 PM 82.4 °F 42.8 °F 25% 30.09 in 6.2 mi NE 21.9 mph - N/A   Partly Cloudy
12:30 PM 82.4 °F 42.8 °F 25% 30.09 in 6.2 mi NE 21.9 mph - N/A   Partly Cloudy
1:20 PM 82.4 °F 44.6 °F 26% 30.06 in 6.2 mi East 21.9 mph - N/A   Partly Cloudy
1:30 PM 82.4 °F 44.6 °F 26% 30.06 in 6.2 mi East 21.9 mph - N/A   Partly Cloudy
2:25 PM 82.4 °F 46.4 °F 28% 30.06 in 6.2 mi East 19.6 mph - N/A   Partly Cloudy
4:22 PM 80.6 °F 44.6 °F 28% 30.04 in 6.2 mi ENE 24.2 mph - N/A   Partly Cloudy
4:30 PM 80.6 °F 44.6 °F 28% 30.04 in 6.2 mi ENE 24.2 mph - N/A   Partly Cloudy
5:21 PM 77.0 °F 42.8 °F 29% 30.06 in 6.2 mi ENE 26.5 mph - N/A   Scattered Clouds
5:30 PM 77.0 °F 42.8 °F 29% 30.06 in 6.2 mi ENE 26.5 mph - N/A   Scattered Clouds
6:20 PM 75.2 °F 41.0 °F 29% 30.04 in 6.2 mi ENE 19.6 mph - N/A   Scattered Clouds
6:30 PM 75.2 °F 41.0 °F 29% 30.04 in 6.2 mi ENE 19.6 mph - N/A   Scattered Clouds
7:21 PM 71.6 °F 41.0 °F 33% 30.06 in 6.2 mi ENE 19.6 mph - N/A   Scattered Clouds
7:30 PM 71.6 °F 41.0 °F 33% 30.06 in 6.2 mi ENE 19.6 mph - N/A   Scattered Clouds
8:21 PM 69.8 °F 44.6 °F 40% 30.06 in 6.2 mi NE 21.9 mph - N/A   Scattered Clouds
9:21 PM 68.0 °F 39.2 °F 35% 30.09 in 6.2 mi ENE 13.8 mph - N/A   Scattered Clouds
11:20 PM 64.4 °F 39.2 °F 40% 30.09 in 6.2 mi NNW 6.9 mph - N/A   Scattered Clouds